Weather History for Champaign, IL

Change the Weather History Date:

Sunday, July 28, 2013

  Actual Average Record
Temperature  
Mean Temperature 61 °F 73 °F  
Max Temperature 73 °F 83 °F 92 °F (2011)
Min Temperature 49 °F 63 °F 49 °F (2013)
Degree Days  
Heating Degree Days 4 0  
Month to date heating degree days 7 0  
Since 1 June heating degree days 20 17  
Since 1 July heating degree days 7 0  
Cooling Degree Days 0 8  
Month to date cooling degree days 242 259  
Year to date cooling degree days 593 574  
Since 1 June cooling degree days 461 482  
Growing Degree Days 10 (Base 50)    
Moisture  
Dew Point 52 °F    
Average Humidity 70    
Maximum Humidity 93    
Minimum Humidity 46    
Precipitation  
Precipitation 0.00 in 0.12 in 0.64 in (1999)
Month to date precipitation 4.74 4.00  
Year to date precipitation 23.67 23.33  
Sea Level Pressure  
Sea Level Pressure 30.00 in    
Wind  
Wind Speed 7 mph (WSW)    
Max Wind Speed 17 mph    
Max Gust Speed 25 mph    
Visibility 10 miles    
Events      
T = Trace of Precipitation, MM = Missing Value Source: NWS Daily Summary

Daily Weather History Graph

Daily Weather History Graph

Search for Another Location

Airport:

Trip Planner

Search our weather history database for the weather conditions in past years. The results will help you decide how hot, cold, wet, or windy it might be!

Date:

Astronomy

Jul. 28, 2013 Rise Set
Actual Time 5:47 AM CDT 8:10 PM CDT
Civil Twilight 5:17 AM CDT 8:41 PM CDT
Nautical Twilight 4:39 AM CDT 9:19 PM CDT
Astronomical Twilight 3:57 AM CDT 10:00 PM CDT
Moon 11:32 PM CDT (7/28) 12:30 PM CDT (7/28)
Length of Visible Light 15h 23m
Length of Day
14h 22m
Waning Gibbous, 60% of the Moon is Illuminated
Jul 28
Waning Gibbous
Jul 29
Last Quarter
Aug 6
New
Aug 14
First Quarter
Aug 20
Full

Hourly Weather History & Observations

Time (CDT) Temp. Dew Point Humidity Pressure Visibility Wind Dir Wind Speed Gust Speed Precip Events Conditions
12:53 AM 52.0 °F 48.9 °F 89% 29.98 in 10.0 mi SW 4.6 mph - N/A   Clear
1:53 AM 51.1 °F 48.0 °F 89% 29.98 in 10.0 mi SW 3.5 mph - N/A   Clear
2:53 AM 50.0 °F 48.0 °F 93% 29.96 in 10.0 mi SW 4.6 mph - N/A   Clear
3:53 AM 50.0 °F 46.9 °F 89% 29.96 in 10.0 mi SW 4.6 mph - N/A   Clear
4:53 AM 50.0 °F 46.9 °F 89% 29.98 in 10.0 mi SW 4.6 mph - N/A   Clear
5:53 AM 48.9 °F 46.9 °F 93% 29.99 in 10.0 mi SW 4.6 mph - N/A   Clear
6:53 AM 52.0 °F 48.9 °F 89% 29.99 in 10.0 mi WSW 3.5 mph - N/A   Clear
7:53 AM 57.0 °F 52.0 °F 83% 30.00 in 10.0 mi WSW 6.9 mph - N/A   Clear
8:53 AM 63.0 °F 53.1 °F 70% 30.00 in 10.0 mi WSW 9.2 mph - N/A   Clear
9:53 AM 66.9 °F 50.0 °F 54% 30.00 in 10.0 mi WSW 13.8 mph 20.7 mph N/A   Clear
10:53 AM 69.1 °F 51.1 °F 53% 30.00 in 10.0 mi West 13.8 mph 23.0 mph N/A   Clear
11:53 AM 70.0 °F 51.1 °F 51% 29.99 in 10.0 mi West 11.5 mph 24.2 mph N/A   Partly Cloudy
12:53 PM 71.1 °F 52.0 °F 51% 29.99 in 10.0 mi West 12.7 mph 20.7 mph N/A   Scattered Clouds
1:53 PM 71.1 °F 51.1 °F 49% 29.99 in 10.0 mi West 15.0 mph 19.6 mph N/A   Mostly Cloudy
2:53 PM 71.1 °F 51.1 °F 49% 30.00 in 10.0 mi WSW 11.5 mph 19.6 mph N/A   Overcast
3:53 PM 71.1 °F 51.1 °F 49% 30.00 in 10.0 mi West 9.2 mph 18.4 mph N/A   Mostly Cloudy
4:53 PM 73.0 °F 52.0 °F 48% 30.00 in 10.0 mi West 10.4 mph 17.3 mph N/A   Mostly Cloudy
5:53 PM 72.0 °F 53.1 °F 51% 30.01 in 10.0 mi West 9.2 mph - N/A   Scattered Clouds
6:53 PM 70.0 °F 54.0 °F 57% 30.03 in 10.0 mi West 4.6 mph - N/A   Mostly Cloudy
7:53 PM 66.0 °F 57.0 °F 73% 30.04 in 10.0 mi West 3.5 mph - N/A   Mostly Cloudy
8:53 PM 63.0 °F 59.0 °F 87% 30.04 in 10.0 mi Calm Calm - N/A   Mostly Cloudy
9:53 PM 59.0 °F 55.9 °F 90% 30.05 in 10.0 mi Calm Calm - N/A   Partly Cloudy
10:53 PM 57.0 °F 55.0 °F 93% 30.06 in 10.0 mi WSW 3.5 mph - N/A   Clear
11:53 PM 55.0 °F 53.1 °F 93% 30.06 in 10.0 mi Calm Calm - N/A   Clear